TimePST,TemperatureF,Dew PointF,Humidity,Sea Level PressureIn,VisibilityMPH,Wind Direction,Wind SpeedMPH,Gust SpeedMPH,PrecipitationIn,Events,Conditions,WindDirDegrees,DateUTC
12:15 AM,51.8,42.8,71,30.19,10.0,WNW,3.5,-,N/A,,Clear,290,2013-02-02 08:15:00
12:35 AM,51.8,42.8,71,30.18,10.0,Calm,Calm,-,N/A,,Clear,0,2013-02-02 08:35:00
12:55 AM,51.8,42.8,71,30.18,10.0,West,4.6,-,N/A,,Clear,280,2013-02-02 08:55:00
1:15 AM,51.8,42.8,71,30.18,10.0,Calm,Calm,-,N/A,,Clear,0,2013-02-02 09:15:00
1:35 AM,51.8,42.8,71,30.18,10.0,Calm,Calm,-,N/A,,Clear,0,2013-02-02 09:35:00
1:55 AM,50.0,42.8,76,30.18,10.0,North,-9999.0,-,N/A,,Clear,0,2013-02-02 09:55:00
2:15 AM,50.0,42.8,76,30.18,10.0,Calm,Calm,-,N/A,,Clear,0,2013-02-02 10:15:00
2:35 AM,48.2,42.8,82,30.18,10.0,WNW,3.5,-,N/A,,Clear,300,2013-02-02 10:35:00
2:55 AM,46.4,42.8,87,30.18,10.0,Calm,Calm,-,N/A,,Clear,0,2013-02-02 10:55:00
3:15 AM,48.2,42.8,82,30.18,10.0,Calm,Calm,-,N/A,,Clear,0,2013-02-02 11:15:00
3:55 AM,46.4,42.8,87,30.18,10.0,WNW,3.5,-,N/A,,Clear,300,2013-02-02 11:55:00
4:15 AM,46.4,42.8,87,30.18,10.0,Calm,Calm,-,N/A,,Clear,0,2013-02-02 12:15:00
4:35 AM,46.4,42.8,87,30.18,10.0,Calm,Calm,-,N/A,,Clear,0,2013-02-02 12:35:00
4:55 AM,46.4,42.8,87,30.18,10.0,Calm,Calm,-,N/A,,Clear,0,2013-02-02 12:55:00
5:15 AM,46.4,42.8,87,30.18,10.0,Calm,Calm,-,N/A,,Clear,0,2013-02-02 13:15:00
6:47 AM,44.6,42.8,93,30.19,25.0,Calm,Calm,-,N/A,,Scattered Clouds,0,2013-02-02 14:47:00
8:47 AM,57.2,42.8,59,30.21,25.0,Calm,Calm,-,N/A,,Mostly Cloudy,0,2013-02-02 16:47:00
11:55 AM,78.8,35.6,21,30.15,25.0,Calm,Calm,-,N/A,,Mostly Cloudy,0,2013-02-02 19:55:00
12:47 PM,80.6,37.4,21,30.12,25.0,West,6.9,-,N/A,,Mostly Cloudy,260,2013-02-02 20:47:00
1:47 PM,78.8,37.4,23,30.10,25.0,West,10.4,-,N/A,,Overcast,270,2013-02-02 21:47:00
6:47 PM,64.4,42.8,45,30.16,12.0,Calm,Calm,-,N/A,,Overcast,0,2013-02-03 02:47:00
7:47 PM,64.4,41.0,42,30.18,12.0,Calm,Calm,-,N/A,,Overcast,0,2013-02-03 03:47:00
8:15 PM,64.4,42.8,45,30.17,10.0,Calm,Calm,-,N/A,,Overcast,0,2013-02-03 04:15:00
8:35 PM,62.6,42.8,48,30.18,10.0,North,-9999.0,-,N/A,,Mostly Cloudy,0,2013-02-03 04:35:00
8:47 PM,60.8,44.6,55,30.18,12.0,Calm,Calm,-,N/A,,Overcast,0,2013-02-03 04:47:00
8:55 PM,60.8,44.6,55,30.17,10.0,WNW,3.5,-,N/A,,Clear,300,2013-02-03 04:55:00
9:15 PM,60.8,42.8,52,30.17,10.0,Calm,Calm,-,N/A,,Mostly Cloudy,0,2013-02-03 05:15:00
9:35 PM,62.6,44.6,52,30.17,10.0,Calm,Calm,-,N/A,,Mostly Cloudy,0,2013-02-03 05:35:00
9:55 PM,60.8,42.8,52,30.16,10.0,Calm,Calm,-,N/A,,Scattered Clouds,0,2013-02-03 05:55:00
10:15 PM,60.8,44.6,55,30.16,10.0,North,-9999.0,-,N/A,,Mostly Cloudy,0,2013-02-03 06:15:00
10:35 PM,60.8,46.4,59,30.16,10.0,WNW,3.5,-,N/A,,Mostly Cloudy,300,2013-02-03 06:35:00
10:55 PM,59.0,48.2,67,30.16,10.0,WNW,4.6,-,N/A,Rain,Light Rain,290,2013-02-03 06:55:00
11:15 PM,59.0,48.2,67,30.15,10.0,West,4.6,-,N/A,,Clear,280,2013-02-03 07:15:00
11:35 PM,57.2,48.2,72,30.14,10.0,Calm,Calm,-,N/A,,Partly Cloudy,0,2013-02-03 07:35:00
11:55 PM,59.0,48.2,67,30.14,10.0,WNW,3.5,-,N/A,,Mostly Cloudy,290,2013-02-03 07:55:00